This demonstration page uses our WeatherBlox Daily Observations layout. Learn more.

Left ArrowRight Arrow

38.89511, -77.03637

Hourly Observations for June 29, 2022

Temp ( °F °C ) Dew Point ( °F °C ) Humidity (%) Winds ( mph kmh ) Pressure ( in mb ) Visibility ( mi km ) Precip ( " mm )
12:52 am 00:52 Mostly Cloudy 71 21.7 57 13.9 61 61 Calm 30.22 1024 10 16 0.00 0.00
1:52 am 01:52 Mostly Cloudy 68 20 57 13.9 68 68 SW 3 6 30.23 1024 10 16 0.00 0.00
2:52 am 02:52 Cloudy 67 19.4 58 14.4 73 73 SSW 6 9 30.23 1024 10 16 0.00 0.00
3:52 am 03:52 Cloudy 67 19.4 58 14.4 73 73 SW 5 7 30.23 1024 10 16 0.00 0.00
4:52 am 04:52 Partly Cloudy 66 18.9 59 15 78 78 SW 5 7 30.24 1024 10 16 0.00 0.00
5:52 am 05:52 Partly Cloudy 66 18.9 59 15 78 78 SSW 5 7 30.24 1024 10 16 0.00 0.00
6:52 am 06:52 Mostly Sunny 67 19.4 60 15.6 79 79 SSW 6 9 30.25 1025 10 16 0.00 0.00
7:52 am 07:52 Mostly Sunny 70 21.1 58 14.4 66 66 SSW 10 17 30.25 1025 10 16 0.00 0.00
8:52 am 08:52 Mostly Sunny 73 22.8 59 15 62 62 SW 10 17 30.26 1025 10 16 0.00 0.00
9:52 am 09:52 Mostly Sunny 77 25 58 14.4 52 52 SSW 10 17 30.26 1025 10 16 0.00 0.00
10:52 am 10:52 Mostly Sunny 79 26.1 60 15.6 52 52 S 15 24 30.26 1025 10 16 0.00 0.00
11:52 am 11:52 Mostly Sunny 80 26.7 61 16.1 52 52 S 10 17 30.26 1025 10 16 0.00 0.00
12:52 pm 12:52 Mostly Sunny 83 28.3 60 15.6 46 46 S 14 22 30.24 1024 10 16 0.00 0.00
1:52 pm 13:52 Partly Cloudy 84 28.9 60 15.6 44 44 S 13 20 30.22 1023 10 16 0.00 0.00
2:52 pm 14:52 Partly Cloudy 85 29.4 62 16.7 46 46 SSW 14 22 30.20 1023 10 16 0.00 0.00
3:52 pm 15:52 Partly Cloudy 85 29.4 61 16.1 45 45 SW 12 19 30.19 1022 10 16 0.00 0.00
4:52 pm 16:52 Mostly Cloudy 84 28.9 62 16.7 48 48 S 15 24 30.17 1022 10 16 0.00 0.00
5:52 pm 17:52 Partly Cloudy 85 29.4 62 16.7 46 46 S 10 17 30.16 1022 10 16 0.00 0.00
6:52 pm 18:52 Partly Cloudy 83 28.3 62 16.7 49 49 S 9 15 30.16 1021 10 16 0.00 0.00
7:52 pm 19:52 Partly Cloudy 83 28.3 65 18.3 55 55 S 12 19 30.16 1021 10 16 0.00 0.00
8:52 pm 20:52 Mostly Clear 80 26.7 65 18.3 60 60 S 7 11 30.17 1022 10 16 0.00 0.00
9:52 pm 21:52 Mostly Clear 79 26.1 64 17.8 60 60 S 7 11 30.19 1023 10 16 0.00 0.00
10:52 pm 22:52 Partly Cloudy 78 25.6 65 18.3 64 64 SSW 7 11 30.21 1023 10 16 0.00 0.00
11:52 pm 23:52 Partly Cloudy 77 25 65 18.3 66 66 SSE 7 11 30.21 1023 10 16 0.00 0.00

Powered by AerisWeather